CCA129 ZBAA-RKPK

Flight info

Callsign CCA129
Flight time 1h 40m
Altitude 39100
Route MUGLO7X MUGLO W34 VAPGU W100 ORAVA W201 UNSEK A326 DONVO G597 AGAVO/N0470F390 Y644 MONSI Z54 SOT Y782 TGU Z83 MASTA GAYHA3
Aircraft B772/H-SDE2E3FGHIJ5LORVWXY/LB1D1

Departure

Time 2026-05-06 04:45
Airport Beijing Capital International Airport (ZBAA)

Arrival

Time 2026-05-06 06:26
Airport Gimhae International Airport (RKPK)
Time Latitude Longitude Altitude Speed Heading
2026-05-06 04:15 40.07172 116.60270 128 ft 0 kts 263°
2026-05-06 04:30 40.07174 116.60290 124 ft 3 kts 263°
2026-05-06 04:30 40.07176 116.60320 124 ft 3 kts 263°
2026-05-06 04:31 40.07179 116.60345 124 ft 3 kts 275°
2026-05-06 04:31 40.07175 116.60367 123 ft 3 kts 313°
2026-05-06 04:31 40.07161 116.60378 123 ft 3 kts 351°
2026-05-06 04:31 40.07139 116.60381 123 ft 2 kts 353°
2026-05-06 04:32 40.07138 116.60381 123 ft 0 kts 353°
2026-05-06 04:35 40.07140 116.60381 123 ft 2 kts 353°
2026-05-06 04:35 40.07158 116.60378 123 ft 3 kts 353°
2026-05-06 04:36 40.07187 116.60374 123 ft 7 kts 353°
2026-05-06 04:36 40.07232 116.60362 124 ft 7 kts 333°
2026-05-06 04:36 40.07250 116.60307 128 ft 7 kts 273°
2026-05-06 04:36 40.07247 116.60246 128 ft 7 kts 262°
2026-05-06 04:37 40.07239 116.60168 127 ft 9 kts 262°
2026-05-06 04:37 40.07204 116.60116 127 ft 9 kts 189°
2026-05-06 04:37 40.07172 116.60114 125 ft 10 kts 180°
2026-05-06 04:37 40.07071 116.60126 125 ft 16 kts 173°
2026-05-06 04:38 40.06958 116.60144 125 ft 16 kts 173°
2026-05-06 04:38 40.06858 116.60160 125 ft 13 kts 173°
2026-05-06 04:38 40.06787 116.60196 125 ft 9 kts 124°
2026-05-06 04:38 40.06785 116.60292 123 ft 17 kts 83°
2026-05-06 04:39 40.06802 116.60481 125 ft 22 kts 83°
2026-05-06 04:39 40.06820 116.60677 128 ft 22 kts 83°
2026-05-06 04:39 40.06838 116.60871 124 ft 22 kts 83°
2026-05-06 04:39 40.06855 116.61048 128 ft 16 kts 83°
2026-05-06 04:40 40.06865 116.61165 126 ft 12 kts 83°
2026-05-06 04:40 40.06874 116.61264 125 ft 10 kts 83°
2026-05-06 04:40 40.06877 116.61343 128 ft 7 kts 104°
2026-05-06 04:40 40.06841 116.61381 124 ft 8 kts 161°
2026-05-06 04:41 40.06766 116.61395 125 ft 11 kts 173°
2026-05-06 04:41 40.06686 116.61407 125 ft 11 kts 173°
2026-05-06 04:41 40.06607 116.61419 125 ft 11 kts 173°
2026-05-06 04:41 40.06529 116.61432 125 ft 11 kts 173°
2026-05-06 04:42 40.06449 116.61444 125 ft 14 kts 173°
2026-05-06 04:42 40.06306 116.61467 125 ft 23 kts 173°
2026-05-06 04:42 40.06149 116.61491 123 ft 22 kts 173°
2026-05-06 04:42 40.06025 116.61510 124 ft 14 kts 173°
2026-05-06 04:43 40.05958 116.61536 123 ft 9 kts 133°
2026-05-06 04:43 40.05949 116.61615 125 ft 9 kts 86°
2026-05-06 04:43 40.05956 116.61696 128 ft 9 kts 82°
2026-05-06 04:43 40.05998 116.61746 124 ft 7 kts 13°
2026-05-06 04:44 40.06035 116.61744 125 ft 1 kts 353°
2026-05-06 04:44 40.06036 116.61744 126 ft 0 kts 353°
2026-05-06 04:44 40.06071 116.61739 125 ft 21 kts 353°
2026-05-06 04:44 40.06415 116.61685 125 ft 86 kts 353°
2026-05-06 04:45 40.07259 116.61553 137 ft 159 kts 353°
2026-05-06 04:45 40.08429 116.61368 890 ft 168 kts 354°
2026-05-06 04:45 40.09589 116.61250 1915 ft 174 kts
2026-05-06 04:45 40.10749 116.61606 2610 ft 172 kts 22°
2026-05-06 04:46 40.11873 116.62325 2946 ft 187 kts 26°
2026-05-06 04:46 40.13048 116.63106 3453 ft 191 kts 25°
2026-05-06 04:46 40.14298 116.63893 3777 ft 211 kts 24°
2026-05-06 04:46 40.15689 116.64779 3977 ft 233 kts 28°
2026-05-06 04:47 40.16860 116.66344 4100 ft 256 kts 67°
2026-05-06 04:47 40.17272 116.68683 4318 ft 274 kts 85°
2026-05-06 04:47 40.17461 116.71228 4792 ft 288 kts 86°
2026-05-06 04:47 40.17640 116.73877 5410 ft 295 kts 86°
2026-05-06 04:48 40.17823 116.76561 5876 ft 297 kts 87°
2026-05-06 04:48 40.18010 116.79268 5896 ft 300 kts 87°
2026-05-06 04:48 40.18198 116.81979 5899 ft 299 kts 86°
2026-05-06 04:48 40.18408 116.84688 6051 ft 302 kts 85°
2026-05-06 04:49 40.18649 116.87437 6776 ft 305 kts 85°
2026-05-06 04:49 40.18896 116.90207 7555 ft 307 kts 85°
2026-05-06 04:49 40.19139 116.92982 8338 ft 309 kts 85°
2026-05-06 04:49 40.19382 116.95790 9070 ft 312 kts 86°
2026-05-06 04:50 40.19624 116.98632 9789 ft 315 kts 87°
2026-05-06 04:50 40.19478 117.01470 10307 ft 315 kts 112°
2026-05-06 04:50 40.18419 117.03928 11058 ft 308 kts 138°
2026-05-06 04:50 40.16784 117.05568 11887 ft 301 kts 158°
2026-05-06 04:51 40.14828 117.06424 12722 ft 297 kts 174°
2026-05-06 04:51 40.12724 117.06838 13091 ft 319 kts 177°
2026-05-06 04:51 40.10439 117.07190 13483 ft 339 kts 178°
2026-05-06 04:51 40.08055 117.07544 14162 ft 350 kts 177°
2026-05-06 04:52 40.05645 117.07911 14937 ft 356 kts 177°
2026-05-06 04:52 40.03167 117.08300 15797 ft 361 kts 177°
2026-05-06 04:52 40.00655 117.08705 16635 ft 366 kts 177°
2026-05-06 04:52 39.98103 117.09122 17437 ft 373 kts 177°
2026-05-06 04:53 39.95509 117.09551 18204 ft 379 kts 176°
2026-05-06 04:53 39.92874 117.09990 18908 ft 384 kts 176°
2026-05-06 04:53 39.90208 117.10436 19650 ft 388 kts 176°
2026-05-06 04:53 39.87519 117.10888 20380 ft 392 kts 176°
2026-05-06 04:54 39.84798 117.11343 21070 ft 397 kts 176°
2026-05-06 04:54 39.82045 117.11803 21734 ft 402 kts 176°
2026-05-06 04:54 39.79255 117.12269 22405 ft 406 kts 176°
2026-05-06 04:54 39.76435 117.12740 23077 ft 411 kts 176°
2026-05-06 04:55 39.73580 117.13216 23677 ft 416 kts 176°
2026-05-06 04:55 39.70688 117.13697 24238 ft 421 kts 176°
2026-05-06 04:55 39.67767 117.14183 24847 ft 425 kts 177°
2026-05-06 04:55 39.64815 117.14674 25484 ft 429 kts 177°
2026-05-06 04:56 39.61832 117.15171 26086 ft 434 kts 177°
2026-05-06 04:56 39.58826 117.15670 26685 ft 438 kts 177°
2026-05-06 04:56 39.55789 117.16175 27249 ft 443 kts 177°
2026-05-06 04:56 39.52719 117.16684 27788 ft 447 kts 177°
2026-05-06 04:57 39.49653 117.17191 28314 ft 451 kts 176°
2026-05-06 04:57 39.46567 117.18051 28723 ft 462 kts 163°
2026-05-06 04:57 39.43689 117.19988 29119 ft 470 kts 151°
2026-05-06 04:57 39.40902 117.22246 29555 ft 476 kts 150°
2026-05-06 04:58 39.38092 117.24552 29994 ft 480 kts 150°
2026-05-06 04:58 39.35253 117.26845 30420 ft 482 kts 151°
2026-05-06 04:58 39.32386 117.29111 30866 ft 484 kts 151°
2026-05-06 04:58 39.29490 117.31362 31278 ft 487 kts 152°
2026-05-06 04:59 39.26570 117.33612 31662 ft 490 kts 152°
2026-05-06 04:59 39.23634 117.35868 32027 ft 493 kts 152°
2026-05-06 04:59 39.20683 117.38136 32391 ft 496 kts 152°
2026-05-06 04:59 39.17718 117.40418 32757 ft 498 kts 152°
2026-05-06 05:00 39.14770 117.42771 33040 ft 500 kts 146°
2026-05-06 05:00 39.12248 117.45896 33208 ft 509 kts 127°
2026-05-06 05:00 39.10508 117.49811 33457 ft 512 kts 111°
2026-05-06 05:00 39.09575 117.54229 33760 ft 511 kts 94°
2026-05-06 05:01 39.09353 117.58766 33973 ft 508 kts 90°
2026-05-06 05:01 39.09188 117.63316 34234 ft 510 kts 91°
2026-05-06 05:01 39.09001 117.67878 34563 ft 510 kts 91°
2026-05-06 05:01 39.08784 117.72435 34928 ft 509 kts 91°
2026-05-06 05:02 39.08540 117.76975 35291 ft 508 kts 92°
2026-05-06 05:02 39.08281 117.81509 35611 ft 508 kts 92°
2026-05-06 05:02 39.08015 117.86056 35898 ft 509 kts 92°
2026-05-06 05:02 39.07749 117.90594 36191 ft 509 kts 92°
2026-05-06 05:03 39.07484 117.95130 36553 ft 507 kts 92°
2026-05-06 05:03 39.07220 117.99655 36872 ft 507 kts 92°
2026-05-06 05:03 39.06939 118.04178 37149 ft 507 kts 94°
2026-05-06 05:03 39.06416 118.08674 37407 ft 509 kts 99°
2026-05-06 05:04 39.05690 118.13129 37752 ft 508 kts 101°
2026-05-06 05:04 39.04897 118.17552 38059 ft 507 kts 101°
2026-05-06 05:04 39.04110 118.21978 38332 ft 507 kts 101°
2026-05-06 05:04 39.03355 118.26408 38549 ft 507 kts 100°
2026-05-06 05:05 39.02631 118.30840 38768 ft 506 kts 99°
2026-05-06 05:05 39.01215 118.39741 38869 ft 509 kts 99°
2026-05-06 05:06 38.99798 118.48583 38885 ft 508 kts 100°
2026-05-06 05:06 38.98360 118.57475 38891 ft 507 kts 100°
2026-05-06 05:07 38.96924 118.66345 38879 ft 507 kts 100°
2026-05-06 05:07 38.95483 118.75206 38891 ft 506 kts 100°
2026-05-06 05:08 38.94037 118.84057 38887 ft 506 kts 100°
2026-05-06 05:08 38.92603 118.92787 38891 ft 506 kts 100°
2026-05-06 05:09 38.91143 119.01636 38880 ft 507 kts 100°
2026-05-06 05:09 38.89666 119.10494 38888 ft 507 kts 100°
2026-05-06 05:10 38.88187 119.19292 38890 ft 507 kts 101°
2026-05-06 05:10 38.86693 119.28143 38895 ft 508 kts 101°
2026-05-06 05:11 38.85191 119.37008 38883 ft 509 kts 101°
2026-05-06 05:11 38.83680 119.45880 38888 ft 509 kts 101°
2026-05-06 05:12 38.82162 119.54753 38888 ft 510 kts 101°
2026-05-06 05:12 38.80635 119.63640 38893 ft 510 kts 101°
2026-05-06 05:13 38.79099 119.72530 38886 ft 511 kts 101°
2026-05-06 05:13 38.77557 119.81426 38894 ft 512 kts 101°
2026-05-06 05:14 38.75968 119.90325 38896 ft 513 kts 105°
2026-05-06 05:14 38.73345 119.98827 38902 ft 514 kts 116°
2026-05-06 05:15 38.69655 120.06678 38884 ft 515 kts 123°
2026-05-06 05:15 38.65788 120.14393 38900 ft 516 kts 122°
2026-05-06 05:16 38.62323 120.22414 38899 ft 516 kts 112°
2026-05-06 05:16 38.59985 120.31014 38905 ft 515 kts 102°
2026-05-06 05:17 38.58540 120.39979 38899 ft 515 kts 99°
2026-05-06 05:17 38.57137 120.48963 38906 ft 516 kts 100°
2026-05-06 05:18 38.55650 120.57954 39054 ft 518 kts 101°
2026-05-06 05:18 38.54913 120.62449 39284 ft 517 kts 100°
2026-05-06 05:18 38.54183 120.66939 39523 ft 516 kts 100°
2026-05-06 05:18 38.53456 120.71421 39729 ft 515 kts 101°
2026-05-06 05:19 38.52726 120.75911 39880 ft 516 kts 101°
2026-05-06 05:19 38.51993 120.80404 40049 ft 517 kts 101°
2026-05-06 05:19 38.51256 120.84895 40226 ft 517 kts 101°
2026-05-06 05:19 38.50518 120.89382 40398 ft 517 kts 101°
2026-05-06 05:20 38.49775 120.93881 40539 ft 518 kts 101°
2026-05-06 05:20 38.49030 120.98387 40281 ft 521 kts 101°
2026-05-06 05:20 38.48275 121.02942 40302 ft 527 kts 101°
2026-05-06 05:21 38.46739 121.12171 40414 ft 536 kts 101°
2026-05-06 05:21 38.45247 121.21517 40501 ft 545 kts 100°
2026-05-06 05:22 38.44023 121.29510 40612 ft 550 kts 101°
2026-05-06 05:22 38.42978 121.35826 40860 ft 549 kts 102°
2026-05-06 05:22 38.42178 121.40591 40907 ft 549 kts 101°
2026-05-06 05:23 38.40602 121.50092 40940 ft 547 kts 101°
2026-05-06 05:23 38.38491 121.62771 40945 ft 545 kts 101°
2026-05-06 05:24 38.36920 121.72150 40950 ft 544 kts 101°
2026-05-06 05:24 38.35332 121.81581 40951 ft 544 kts 101°
2026-05-06 05:25 38.33738 121.91000 40953 ft 543 kts 101°
2026-05-06 05:25 38.32140 122.00393 40945 ft 542 kts 101°
2026-05-06 05:26 38.30536 122.09775 40959 ft 542 kts 101°
2026-05-06 05:26 38.28926 122.19152 40961 ft 541 kts 101°
2026-05-06 05:27 38.27356 122.28459 40972 ft 541 kts 99°
2026-05-06 05:27 38.26039 122.37873 40967 ft 539 kts 102°
2026-05-06 05:28 38.24944 122.42428 40959 ft 539 kts 114°
2026-05-06 05:28 38.23252 122.46673 40974 ft 537 kts 124°
2026-05-06 05:28 38.18558 122.53923 40977 ft 529 kts 140°
2026-05-06 05:29 38.13263 122.60431 40968 ft 530 kts 139°
2026-05-06 05:29 38.08068 122.67109 40988 ft 532 kts 138°
2026-05-06 05:30 38.02904 122.73838 40987 ft 532 kts 137°
2026-05-06 05:30 37.97735 122.80560 40995 ft 533 kts 137°
2026-05-06 05:31 37.92555 122.87270 41002 ft 533 kts 137°
2026-05-06 05:31 37.87365 122.93972 41006 ft 533 kts 137°
2026-05-06 05:32 37.82168 123.00670 41012 ft 533 kts 137°
2026-05-06 05:32 37.76977 123.07348 41019 ft 532 kts 137°
2026-05-06 05:33 37.71779 123.14019 41023 ft 532 kts 137°
2026-05-06 05:33 37.66585 123.20673 41031 ft 532 kts 137°
2026-05-06 05:34 37.61392 123.27313 41034 ft 531 kts 137°
2026-05-06 05:34 37.56266 123.34017 41055 ft 532 kts 133°
2026-05-06 05:35 37.51766 123.41369 41046 ft 533 kts 128°
2026-05-06 05:35 37.47377 123.48891 41055 ft 533 kts 128°
2026-05-06 05:36 37.42955 123.56371 41055 ft 532 kts 128°
2026-05-06 05:36 37.38506 123.63806 41058 ft 532 kts 129°
2026-05-06 05:37 37.34049 123.71224 41064 ft 531 kts 129°
2026-05-06 05:37 37.29599 123.78625 41067 ft 531 kts 128°
2026-05-06 05:38 37.25144 123.86024 41071 ft 530 kts 128°
2026-05-06 05:38 37.20717 123.93362 41072 ft 529 kts 127°
2026-05-06 05:39 37.18772 123.97342 41069 ft 529 kts 114°
2026-05-06 05:39 37.17518 124.01664 41085 ft 528 kts 103°
2026-05-06 05:39 37.16860 124.06175 41086 ft 524 kts 91°
2026-05-06 05:39 37.16880 124.10712 41090 ft 519 kts 82°
2026-05-06 05:40 37.17426 124.19738 41087 ft 520 kts 83°
2026-05-06 05:40 37.17746 124.28766 41090 ft 523 kts 85°
2026-05-06 05:41 37.17917 124.37890 41092 ft 524 kts 85°
2026-05-06 05:41 37.18122 124.47026 41092 ft 524 kts 85°
2026-05-06 05:42 37.18331 124.56171 41096 ft 525 kts 85°
2026-05-06 05:42 37.18532 124.65323 41094 ft 525 kts 85°
2026-05-06 05:43 37.18723 124.74475 41102 ft 525 kts 85°
2026-05-06 05:43 37.18909 124.83620 41104 ft 524 kts 85°
2026-05-06 05:44 37.19094 124.92767 41102 ft 524 kts 85°
2026-05-06 05:44 37.19277 125.01894 41109 ft 523 kts 85°
2026-05-06 05:45 37.19452 125.11021 41111 ft 523 kts 85°
2026-05-06 05:45 37.19620 125.20136 41113 ft 522 kts 85°
2026-05-06 05:46 37.19780 125.29245 41119 ft 522 kts 85°
2026-05-06 05:46 37.19932 125.38272 41115 ft 521 kts 85°
2026-05-06 05:47 37.20079 125.47358 41121 ft 521 kts 85°
2026-05-06 05:47 37.20210 125.56438 41120 ft 520 kts 85°
2026-05-06 05:48 37.20325 125.65507 41132 ft 520 kts 85°
2026-05-06 05:48 37.20435 125.74483 41114 ft 520 kts 85°
2026-05-06 05:49 37.20542 125.83569 41034 ft 521 kts 85°
2026-05-06 05:49 37.20641 125.92656 41034 ft 521 kts 85°
2026-05-06 05:50 37.20734 126.01739 41035 ft 520 kts 85°
2026-05-06 05:50 37.20821 126.10797 41040 ft 519 kts 86°
2026-05-06 05:51 37.20894 126.19008 41049 ft 518 kts 86°
2026-05-06 05:51 37.20967 126.28050 41050 ft 518 kts 86°
2026-05-06 05:52 37.21034 126.37076 41054 ft 518 kts 86°
2026-05-06 05:52 37.21095 126.46102 41052 ft 517 kts 86°
2026-05-06 05:53 37.21152 126.55132 41054 ft 517 kts 86°
2026-05-06 05:53 37.21206 126.64156 41046 ft 517 kts 86°
2026-05-06 05:54 37.21254 126.73123 41041 ft 517 kts 86°
2026-05-06 05:54 37.20619 126.82093 41051 ft 521 kts 104°
2026-05-06 05:55 37.19375 126.86370 41056 ft 523 kts 115°
2026-05-06 05:55 37.17563 126.90318 41045 ft 523 kts 127°
2026-05-06 05:55 37.12990 126.97399 41052 ft 523 kts 129°
2026-05-06 05:56 37.08419 127.04485 41050 ft 522 kts 133°
2026-05-06 05:56 37.03310 127.10932 41043 ft 521 kts 137°
2026-05-06 05:57 36.98101 127.17249 41024 ft 521 kts 137°
2026-05-06 05:57 36.92927 127.23612 41021 ft 521 kts 136°
2026-05-06 05:58 36.87780 127.29986 41013 ft 521 kts 136°
2026-05-06 05:58 36.82627 127.36343 41035 ft 520 kts 137°
2026-05-06 05:59 36.77462 127.42676 41045 ft 520 kts 137°
2026-05-06 05:59 36.72309 127.48984 41047 ft 519 kts 137°
2026-05-06 06:00 36.67191 127.55241 41055 ft 518 kts 137°
2026-05-06 06:00 36.62115 127.61440 41006 ft 519 kts 137°
2026-05-06 06:01 36.59526 127.64596 40463 ft 522 kts 136°
2026-05-06 06:01 36.56927 127.67763 39725 ft 522 kts 136°
2026-05-06 06:01 36.54355 127.70895 38988 ft 513 kts 135°
2026-05-06 06:01 36.51825 127.73973 38083 ft 506 kts 135°
2026-05-06 06:02 36.49321 127.77019 37147 ft 500 kts 135°
2026-05-06 06:02 36.46848 127.80021 36256 ft 494 kts 135°
2026-05-06 06:02 36.44403 127.82986 35396 ft 489 kts 135°
2026-05-06 06:02 36.41986 127.85920 34566 ft 484 kts 135°
2026-05-06 06:03 36.39589 127.88830 33711 ft 479 kts 135°
2026-05-06 06:03 36.37224 127.91702 32816 ft 474 kts 135°
2026-05-06 06:03 36.34877 127.94549 31936 ft 469 kts 135°
2026-05-06 06:03 36.32558 127.97361 31094 ft 463 kts 135°
2026-05-06 06:04 36.30246 128.00161 30283 ft 469 kts 135°
2026-05-06 06:04 36.27895 128.03004 29455 ft 474 kts 135°
2026-05-06 06:04 36.25537 128.05850 28784 ft 472 kts 136°
2026-05-06 06:04 36.23186 128.08682 28118 ft 473 kts 136°
2026-05-06 06:05 36.20822 128.11526 27514 ft 473 kts 136°
2026-05-06 06:05 36.18466 128.14358 26926 ft 470 kts 136°
2026-05-06 06:05 36.16127 128.17167 26341 ft 466 kts 136°
2026-05-06 06:05 36.13811 128.19948 25791 ft 463 kts 136°
2026-05-06 06:06 36.11508 128.22711 25224 ft 460 kts 137°
2026-05-06 06:06 36.09217 128.25458 24672 ft 456 kts 137°
2026-05-06 06:06 36.06942 128.28182 24122 ft 454 kts 137°
2026-05-06 06:06 36.04682 128.30888 23542 ft 452 kts 137°
2026-05-06 06:07 36.02457 128.33549 22901 ft 449 kts 137°
2026-05-06 06:07 36.00266 128.36169 22293 ft 428 kts 137°
2026-05-06 06:07 35.98158 128.38688 21777 ft 419 kts 137°
2026-05-06 06:07 35.96066 128.41184 21272 ft 417 kts 137°
2026-05-06 06:08 35.93985 128.43663 20767 ft 415 kts 137°
2026-05-06 06:08 35.91914 128.46127 20275 ft 413 kts 137°
2026-05-06 06:08 35.89851 128.48584 19773 ft 411 kts 137°
2026-05-06 06:08 35.87797 128.51029 19274 ft 409 kts 137°
2026-05-06 06:09 35.86444 128.52638 18950 ft 408 kts 137°
2026-05-06 06:09 35.84406 128.55057 18445 ft 407 kts 137°
2026-05-06 06:09 35.82264 128.57251 17884 ft 396 kts 151°
2026-05-06 06:09 35.79746 128.58520 17393 ft 389 kts 168°
2026-05-06 06:10 35.77085 128.58880 16898 ft 379 kts 185°
2026-05-06 06:10 35.74482 128.58640 16434 ft 373 kts 187°
2026-05-06 06:10 35.71899 128.58360 15941 ft 372 kts 187°
2026-05-06 06:10 35.69322 128.58085 15468 ft 371 kts 187°
2026-05-06 06:11 35.66752 128.57824 14976 ft 371 kts 187°
2026-05-06 06:11 35.64182 128.57574 14493 ft 370 kts 186°
2026-05-06 06:11 35.61611 128.57333 13972 ft 370 kts 186°
2026-05-06 06:11 35.59037 128.57100 13399 ft 371 kts 186°
2026-05-06 06:12 35.56468 128.56867 12865 ft 369 kts 186°
2026-05-06 06:12 35.53914 128.56637 12329 ft 368 kts 186°
2026-05-06 06:12 35.51363 128.56406 11811 ft 366 kts 186°
2026-05-06 06:12 35.48832 128.56227 11282 ft 364 kts 182°
2026-05-06 06:13 35.46311 128.56489 10784 ft 365 kts 172°
2026-05-06 06:13 35.43867 128.57196 10522 ft 354 kts 168°
2026-05-06 06:13 35.41510 128.57893 10346 ft 342 kts 169°
2026-05-06 06:13 35.39229 128.58531 10210 ft 331 kts 169°
2026-05-06 06:14 35.37044 128.59131 10056 ft 321 kts 169°
2026-05-06 06:14 35.34927 128.59711 9773 ft 301 kts 170°
2026-05-06 06:14 35.32950 128.60255 9365 ft 283 kts 170°
2026-05-06 06:14 35.31061 128.60773 8986 ft 276 kts 170°
2026-05-06 06:15 35.29187 128.61286 8642 ft 276 kts 170°
2026-05-06 06:15 35.27321 128.61796 8338 ft 275 kts 170°
2026-05-06 06:15 35.25448 128.62311 7975 ft 276 kts 170°
2026-05-06 06:15 35.23569 128.62823 7670 ft 277 kts 170°
2026-05-06 06:16 35.21683 128.63312 7338 ft 276 kts 173°
2026-05-06 06:16 35.19774 128.63640 6994 ft 278 kts 175°
2026-05-06 06:16 35.17881 128.63927 6645 ft 269 kts 175°
2026-05-06 06:16 35.16063 128.64211 6324 ft 261 kts 175°
2026-05-06 06:17 35.14253 128.64496 6009 ft 264 kts 174°
2026-05-06 06:17 35.12419 128.64805 5635 ft 264 kts 171°
2026-05-06 06:17 35.10768 128.65719 5308 ft 265 kts 142°
2026-05-06 06:17 35.09564 128.67410 4980 ft 264 kts 127°
2026-05-06 06:18 35.08450 128.69221 4654 ft 269 kts 128°
2026-05-06 06:18 35.07314 128.71038 4415 ft 267 kts 128°
2026-05-06 06:18 35.06201 128.72814 4274 ft 259 kts 128°
2026-05-06 06:18 35.05150 128.74488 4139 ft 238 kts 128°
2026-05-06 06:19 35.04362 128.76184 4021 ft 228 kts 103°
2026-05-06 06:19 35.04396 128.78082 3936 ft 224 kts 70°
2026-05-06 06:19 35.05124 128.79695 3773 ft 215 kts 46°
2026-05-06 06:19 35.06220 128.80881 3636 ft 209 kts 36°
2026-05-06 06:20 35.07388 128.81945 3436 ft 208 kts 35°
2026-05-06 06:20 35.08526 128.82979 3128 ft 200 kts 36°
2026-05-06 06:20 35.09610 128.83974 2827 ft 189 kts 36°
2026-05-06 06:20 35.10616 128.84901 2587 ft 174 kts 36°
2026-05-06 06:21 35.11554 128.85767 2263 ft 164 kts 37°
2026-05-06 06:21 35.12432 128.86579 2046 ft 153 kts 36°
2026-05-06 06:21 35.13246 128.87334 1951 ft 146 kts 36°
2026-05-06 06:21 35.14067 128.88097 1850 ft 150 kts 37°
2026-05-06 06:22 35.14914 128.88813 1731 ft 148 kts 29°
2026-05-06 06:22 35.15861 128.89319 1700 ft 150 kts 15°
2026-05-06 06:22 35.16891 128.89515 1564 ft 148 kts
2026-05-06 06:22 35.17922 128.89532 1421 ft 149 kts 354°
2026-05-06 06:23 35.18949 128.89427 1290 ft 148 kts 351°
2026-05-06 06:23 35.19956 128.89282 1163 ft 145 kts 352°
2026-05-06 06:23 35.20956 128.89383 1060 ft 148 kts 16°
2026-05-06 06:23 35.21810 128.90070 1038 ft 145 kts 54°
2026-05-06 06:24 35.22139 128.91201 944 ft 142 kts 94°
2026-05-06 06:24 35.21907 128.92339 776 ft 136 kts 126°
2026-05-06 06:24 35.21274 128.93079 568 ft 126 kts 155°
2026-05-06 06:24 35.20447 128.93378 360 ft 123 kts 175°
2026-05-06 06:25 35.19606 128.93483 205 ft 121 kts 178°
2026-05-06 06:25 35.18758 128.93588 56 ft 122 kts 175°
2026-05-06 06:25 35.17428 128.93762 31 ft 50 kts 174°
2026-05-06 06:26 35.17212 128.93799 29 ft 23 kts 161°
2026-05-06 06:26 35.17090 128.93887 28 ft 17 kts 144°
2026-05-06 06:26 35.17009 128.93959 27 ft 14 kts 144°
2026-05-06 06:26 35.16969 128.94033 30 ft 10 kts 99°
2026-05-06 06:27 35.16967 128.94121 27 ft 10 kts 89°
2026-05-06 06:27 35.16973 128.94206 27 ft 9 kts 83°
2026-05-06 06:27 35.16980 128.94283 28 ft 9 kts 84°
2026-05-06 06:27 35.16987 128.94360 28 ft 9 kts 84°
2026-05-06 06:28 35.16991 128.94400 28 ft 0 kts 84°
2026-05-06 06:30 35.16993 128.94429 28 ft 8 kts 84°
2026-05-06 06:30 35.17017 128.94488 28 ft 8 kts 31°
2026-05-06 06:30 35.17074 128.94495 28 ft 8 kts 355°
2026-05-06 06:30 35.17130 128.94488 28 ft 8 kts 354°
2026-05-06 06:31 35.17187 128.94481 28 ft 8 kts 354°
2026-05-06 06:31 35.17244 128.94474 28 ft 8 kts 354°
2026-05-06 06:31 35.17298 128.94467 28 ft 5 kts 354°
2026-05-06 06:31 35.17321 128.94465 28 ft 3 kts
2026-05-06 06:32 35.17338 128.94479 28 ft 3 kts 50°
2026-05-06 06:32 35.17338 128.94505 28 ft 3 kts 107°
2026-05-06 06:32 35.17329 128.94530 28 ft 3 kts 115°
2026-05-06 06:32 35.17321 128.94549 28 ft 1 kts 115°
2026-05-06 06:33 35.17320 128.94553 28 ft 0 kts 115°